This demonstration page uses our WeatherBlox Daily Observations layout. Learn more.

Left ArrowRight Arrow

34.16533, -84.80231

Hourly Observations for April 2, 2020

Temp ( °F °C ) Dew Point ( °F °C ) Humidity (%) Winds ( mph kmh ) Pressure ( in mb ) Visibility ( mi km ) Precip ( " mm )
12:53 am 00:53 Clear 40 4.4 36 2.2 86 86 Calm 30.06 1018 10 16 0.00 0.00
1:53 am 01:53 Clear 40 4.4 36 2.2 86 86 Calm 30.04 1017 10 16 0.00 0.00
2:53 am 02:53 Clear 41 5 37 2.8 86 86 Calm 30.05 1018 10 16 0.00 0.00
3:53 am 03:53 Clear 39 3.9 35 1.7 86 86 Calm 30.05 1018 10 16 0.00 0.00
4:53 am 04:53 Clear 39 3.9 36 2.2 89 89 Calm 30.06 1018 10 16 0.00 0.00
5:53 am 05:53 Clear 37 2.8 35 1.7 93 93 Calm 30.07 1018 10 16 0.00 0.00
6:53 am 06:53 Clear 37 2.8 34 1.1 89 89 Calm 30.10 1019 10 16 0.00 0.00
7:53 am 07:53 Sunny 37 2.8 35 1.7 93 93 Calm 30.12 1020 10 16 0.00 0.00
8:53 am 08:53 Sunny 44 6.7 38 3.3 79 79 Calm 30.13 1020 10 16 0.00 0.00
9:53 am 09:53 Sunny 49 9.4 40 4.4 71 71 VRB 3 6 30.14 1021 10 16 0.00 0.00
10:53 am 10:53 Sunny 55 12.8 40 4.4 57 57 NNE 3 6 30.13 1020 10 16 0.00 0.00
11:53 am 11:53 Sunny 57 13.9 38 3.3 49 49 VRB 5 7 30.12 1020 10 16 0.00 0.00
12:53 pm 12:53 Sunny 61 16.1 40 4.4 46 46 NE 6 9 30.09 1019 10 16 0.00 0.00
1:53 pm 13:53 Sunny 63 17.2 38 3.3 40 40 N 7 11 30.08 1019 10 16 0.00 0.00
2:53 pm 14:53 Sunny 65 18.3 36 2.2 34 34 N 10 17 30.06 1018 10 16 0.00 0.00
3:53 pm 15:53 Sunny 67 19.4 37 2.8 33 33 VRB 6 9 30.03 1017 10 16 0.00 0.00
4:53 pm 16:53 Sunny 69 20.6 38 3.3 32 32 N 12 19 30.01 1016 10 16 0.00 0.00
9:53 pm 21:53 Clear 52 11.1 38 3.3 59 59 Calm 30.04 1017 8 13 0.00 0.00
10:53 pm 22:53 Clear 49 9.4 40 4.4 71 71 Calm 30.04 1017 10 16 0.00 0.00
11:53 pm 23:53 Clear 48 8.9 40 4.4 74 74 Calm 30.04 1017 10 16 0.00 0.00

Powered by AerisWeather